Temp
5 5 5 5 5 5 5 5 5 5 6 6 5 5 5 5 5 6 5 5 5 3 2 2 2 2 2 2 2 2 1 1 2 3 4 6 7 8 7 8 10 11 11 9 10
5 5 5 5 5 4 5 5 5 5 5 5 5 5 5 5 5 5 5 4 4 2 2 1 1 1 1 1 1 1 1 2 2 2 3 5 7 7 7 8 9 10 10 10 10
5 4 4 4 4 4 4 5 5 5 4 4 4 5 5 5 5 5 4 4 3 2 1 1 -0 -0 0 -1 -0 1 2 3 1 2 3 3 5 5 6 6 8 9 9 9 9
4 4 4 5 5 5 5 5 5 4 4 4 4 4 4 5 4 4 4 3 3 2 1 1 -0 -1 -1 -1 -1 -1 1 1 1 1 1 1 3 4 5 5 6 7 7 8 8
5 5 5 5 5 5 5 5 5 4 4 4 3 3 3 5 4 3 3 3 3 2 1 0 -1 -1 -1 -1 -1 -1 0 1 1 1 2 1 3 3 4 5 6 6 6 7 7
5 5 5 5 5 5 5 5 5 4 4 3 3 3 3 5 3 2 2 2 2 2 0 0 0 -1 -1 -1 -1 -0 0 -0 0 1 1 1 1 -0 3 4 5 6 6 7 7
4 4 4 4 5 5 5 5 4 4 4 3 3 2 3 6 2 2 2 1 1 1 0 -0 -1 -1 -1 -2 -1 -1 -1 -0 0 0 0 0 -0 2 3 3 5 5 5 6 6
4 4 4 4 4 4 4 4 4 4 4 3 2 2 4 4 2 3 2 1 0 -0 -0 -1 -1 -1 -1 -2 -2 -2 -1 -1 1 0 0 0 1 2 3 2 4 5 4 5 5
2 2 3 3 3 3 3 3 3 3 3 2 2 1 4 4 3 1 1 1 -1 -1 -2 -2 -2 -2 -2 -2 -2 -2 -1 -0 1 1 1 0 0 2 2 4 4 4 4 4 5
2 2 2 2 2 2 2 2 3 3 2 2 1 1 2 1 2 1 1 0 -1 -2 -3 -2 -2 -2 -2 -1 -2 -2 -1 -1 -0 1 0 1 1 1 1 2 4 4 4 3 4
1 1 1 1 1 1 2 2 2 2 2 2 1 2 0 1 1 0 0 -0 -2 -3 -2 -2 -3 -2 -0 -1 -2 -2 -1 -0 0 0 0 -0 1 1 2 2 2 3 5 4 4
0 0 0 1 0 0 1 0 0 -1 1 2 1 1 1 0 -0 -0 -1 -1 -2 -2 -2 -4 -3 -1 -1 -2 -2 -2 -1 -0 0 0 -0 1 1 1 1 1 2 2 5 5 4
-1 -1 -0 0 -0 -1 -1 -1 -2 -3 -4 2 1 2 2 0 1 -0 -2 -2 -2 -1 -2 -1 -0 -2 -2 -2 -2 -2 -2 -1 -0 1 -0 0 0 1 1 1 2 2 3 5 5
-1 -1 -1 -1 -2 -2 -2 -2 -5 -7 -6 -0 1 -1 1 -0 -0 -2 -3 -2 -3 -2 -2 -3 -2 -3 -1 -2 -2 -3 -1 -2 -1 -1 -1 -0 1 1 2 1 1 2 3 5 6
-2 -3 -2 -3 -2 -2 -3 -4 -6 -8 -9 -1 -1 -1 -1 -1 -2 -1 -3 -4 -3 -3 -4 -4 -2 -2 -3 -1 -2 -3 -3 -2 -2 -2 -2 -1 -1 2 3 2 2 3 4 5 7
-3 -4 -4 -4 -4 -4 -4 -5 -7 -8 -8 -2 -2 -2 -2 -2 -2 -3 -3 -5 -4 -4 -4 -4 -3 -2 -2 -2 -2 -2 -2 -2 -2 -2 -2 -0 -1 2 2 5 5 4 4 4 3
-5 -5 -6 -5 -4 -5 -5 -7 -8 -7 -4 -2 -3 -4 -3 -3 -3 -4 -3 -5 -5 -5 -5 -5 -4 -4 -3 -3 -3 -3 -2 -3 -3 -3 -2 1 -1 2 4 5 6 6 5 4 3
-7 -7 -8 -7 -7 -7 -7 -9 -8 -6 -5 -3 -4 -4 -4 -4 -3 -3 -4 -4 -5 -5 -4 -5 -4 -4 -3 -3 -3 -3 -2 -2 -3 -3 -3 -0 -1 3 5 4 4 5 6 6 4
-11 -10 -10 -9 -9 -9 -10 -11 -8 -7 -6 -6 -5 -5 -4 -4 -4 -4 -4 -4 -4 -4 -5 -3 -4 -2 -2 -3 -2 -2 -3 -1 -2 -1 -2 1 2 2 3 5 5 6 6 6 6
-12 -12 -11 -11 -11 -10 -10 -10 -10 -8 -8 -8 -8 -7 -6 -5 -5 -5 -5 -4 -4 -3 -4 -4 -3 -2 -1 -2 -2 -2 -2 -3 -3 -2 -2 -0 1 3 5 6 6 6 7 7 7
-13 -13 -12 -12 -11 -11 -12 -11 -10 -10 -10 -10 -9 -8 -7 -8 -7 -6 -5 -4 -4 -2 -4 -4 -3 -2 -2 -2 -2 -3 -2 -2 -2 -2 -4 -4 1 4 5 6 7 6 7 7 7
-13 -13 -12 -13 -12 -12 -12 -12 -13 -13 -13 -11 -9 -9 -9 -8 -8 -8 -7 -6 -5 -5 -5 -4 -5 -4 -2 -2 -2 -2 -2 -2 -3 -3 -2 -2 1 4 5 6 6 7 7 8 7
-14 -13 -12 -13 -13 -13 -13 -13 -13 -13 -13 -13 -11 -11 -11 -10 -9 -8 -8 -6 -6 -6 -6 -5 -5 -5 -3 -3 -2 -2 -2 -3 -1 -0 -1 -0 1 4 4 6 6 6 6 7 6
-14 -14 -13 -13 -13 -13 -13 -13 -13 -13 -13 -13 -13 -12 -12 -12 -12 -11 -10 -8 -7 -7 -6 -6 -5 -4 -4 -2 -2 -2 -2 -2 -1 -1 -0 0 2 5 4 5 6 6 6 5 6
-14 -14 -13 -13 -13 -13 -14 -13 -13 -14 -14 -13 -13 -13 -13 -14 -13 -12 -11 -10 -8 -8 -8 -7 -6 -4 -4 -3 -2 -1 -1 -1 -1 -2 -0 1 1 2 4 5 4 5 5 5 4
-14 -14 -14 -13 -14 -13 -13 -14 -13 -13 -14 -13 -14 -13 -14 -14 -14 -14 -13 -11 -12 -9 -8 -7 -6 -5 -4 -3 -3 -1 -0 -0 0 -0 -1 0 1 2 3 3 4 5 5 6 5
-14 -14 -14 -14 -14 -14 -13 -13 -14 -14 -13 -13 -14 -14 -13 -13 -13 -13 -13 -11 -11 -10 -10 -10 -8 -5 -5 -4 -3 -3 -1 0 0 -0 -1 -1 1 1 3 4 4 5 4 5 4
Height
3149 3146 3143 3140 3138 3135 3132 3130 3127 3124 3121 3118 3115 3113 3110 3106 3105 3103 3101 3101 3097 3095 3095 3095 3096 3097 3097 3100 3104 3106 3107 3106 3111 3114 3118 3121 3127 3130 3133 3135 3136 3138 3139 3140 3142
3144 3142 3139 3136 3133 3130 3128 3125 3123 3120 3117 3114 3110 3107 3104 3103 3101 3099 3097 3095 3093 3092 3092 3091 3092 3092 3093 3095 3097 3099 3097 3099 3105 3109 3111 3116 3117 3123 3128 3129 3132 3134 3135 3136 3138
3138 3135 3133 3130 3127 3125 3122 3119 3117 3114 3112 3108 3105 3103 3099 3096 3095 3093 3091 3089 3089 3088 3087 3088 3088 3089 3089 3089 3092 3093 3091 3096 3101 3105 3106 3108 3110 3113 3119 3125 3129 3131 3133 3133 3135
3133 3130 3128 3125 3121 3119 3116 3113 3111 3108 3105 3102 3099 3097 3095 3093 3093 3088 3087 3085 3085 3084 3083 3083 3084 3085 3085 3085 3088 3088 3089 3092 3095 3101 3105 3106 3105 3108 3112 3117 3121 3124 3130 3131 3132
3127 3124 3121 3118 3115 3112 3110 3107 3105 3102 3099 3096 3093 3089 3088 3085 3088 3081 3082 3081 3080 3079 3079 3079 3079 3081 3080 3081 3085 3084 3086 3088 3091 3095 3099 3104 3103 3108 3108 3112 3116 3120 3124 3127 3129
3122 3118 3115 3112 3109 3106 3104 3101 3098 3094 3091 3089 3087 3083 3080 3078 3079 3076 3076 3075 3075 3074 3074 3074 3075 3078 3077 3077 3080 3081 3083 3084 3086 3089 3095 3098 3104 3105 3106 3109 3110 3115 3120 3124 3126
3117 3114 3111 3107 3103 3100 3097 3094 3091 3087 3084 3081 3078 3072 3068 3075 3072 3070 3070 3070 3069 3068 3068 3070 3071 3072 3071 3074 3076 3078 3079 3078 3080 3084 3088 3099 3099 3096 3105 3103 3104 3108 3115 3120 3122
3111 3107 3103 3100 3096 3092 3089 3088 3084 3078 3076 3072 3068 3063 3053 3066 3064 3063 3062 3063 3063 3063 3063 3064 3066 3067 3067 3068 3069 3072 3074 3073 3073 3077 3081 3086 3080 3085 3099 3097 3100 3105 3108 3115 3118
3102 3098 3094 3091 3087 3082 3080 3078 3074 3069 3067 3062 3059 3055 3045 3052 3055 3053 3053 3055 3057 3058 3058 3059 3060 3060 3062 3062 3064 3064 3064 3064 3065 3068 3073 3074 3075 3081 3088 3092 3097 3099 3102 3109 3113
3096 3091 3087 3083 3079 3073 3070 3067 3064 3060 3055 3052 3049 3049 3044 3043 3045 3045 3048 3049 3049 3051 3054 3053 3053 3052 3053 3051 3052 3056 3059 3063 3064 3066 3066 3066 3068 3072 3081 3085 3093 3094 3097 3101 3106
3088 3082 3077 3075 3070 3064 3061 3057 3055 3049 3043 3042 3038 3033 3035 3036 3037 3039 3042 3043 3043 3044 3045 3045 3046 3038 3043 3047 3049 3055 3057 3057 3060 3062 3064 3064 3068 3071 3074 3076 3081 3085 3093 3095 3100
3080 3074 3069 3068 3061 3057 3051 3046 3043 3039 3027 3029 3025 3020 3027 3029 3024 3030 3033 3033 3033 3033 3039 3041 3030 3037 3043 3045 3047 3049 3051 3052 3056 3057 3059 3058 3058 3060 3065 3067 3072 3076 3086 3091 3094
3071 3064 3058 3055 3053 3049 3042 3039 3035 3030 3023 3009 3009 3011 3013 3017 3009 3012 3021 3023 3024 3026 3027 3027 3028 3034 3036 3038 3040 3041 3043 3045 3051 3052 3051 3054 3052 3054 3055 3060 3062 3070 3077 3085 3087
3064 3057 3048 3043 3046 3040 3035 3030 3029 3028 3021 3001 3002 2996 2997 2998 2995 3000 3006 3016 3016 3016 3023 3022 3027 3027 3029 3029 3033 3031 3037 3045 3048 3048 3048 3050 3045 3041 3045 3049 3054 3059 3065 3072 3079
3054 3050 3041 3035 3032 3032 3031 3025 3025 3026 3025 3002 2997 2995 2993 2995 2992 2992 2996 3004 3007 3011 3016 3010 3018 3022 3022 3021 3027 3025 3033 3036 3041 3042 3043 3042 3045 3029 3036 3041 3044 3045 3050 3055 3068
3043 3043 3034 3031 3028 3022 3021 3021 3021 3026 3009 2998 2994 2992 2990 2989 2990 2990 2991 3000 3005 3008 3008 3009 3016 3017 3016 3020 3022 3024 3027 3029 3034 3037 3035 3030 3033 3022 3023 3018 3025 3037 3042 3045 3052
3032 3032 3027 3021 3020 3016 3013 3015 3019 3008 2999 2994 2991 2990 2988 2986 2986 2987 2988 2989 2994 3001 2999 3004 3003 3009 3012 3014 3017 3018 3019 3021 3025 3028 3022 3023 3027 3014 3012 3016 3020 3027 3033 3039 3047
3021 3023 3021 3013 3011 3009 3007 3010 3005 2993 2992 2988 2985 2984 2983 2984 2982 2983 2984 2985 2989 2992 2995 2995 2996 2997 3001 3003 3005 3006 3010 3009 3015 3018 3015 3018 3011 2999 3002 3008 3015 3021 3028 3035 3042
3012 3012 3013 3009 3005 3004 3003 2999 2993 2990 2990 2985 2981 2980 2978 2978 2978 2978 2978 2976 2979 2984 2989 2988 2986 2989 2989 2997 3000 2999 3001 3007 3009 3009 3010 3004 3001 2996 2998 3005 3008 3011 3016 3024 3033
3006 3004 3007 3003 2998 2998 2995 2989 2988 2988 2983 2981 2980 2979 2976 2973 2974 2974 2974 2971 2974 2976 2980 2982 2982 2983 2986 2992 2993 2992 2997 3003 3003 3005 3006 2993 2991 2989 2990 2993 2999 3001 3007 3017 3024
3003 2999 3002 2998 2995 2992 2988 2986 2982 2979 2978 2978 2976 2974 2972 2971 2971 2970 2968 2969 2970 2971 2974 2978 2981 2980 2981 2981 2981 2986 2987 2991 2993 2996 2997 2995 2982 2980 2985 2988 2993 2998 3004 3009 3015
2999 2996 2998 2993 2993 2988 2985 2983 2979 2975 2973 2973 2971 2968 2969 2968 2965 2965 2964 2967 2965 2968 2968 2971 2974 2974 2976 2976 2977 2978 2980 2983 2987 2990 2990 2990 2982 2979 2979 2984 2988 2995 3000 3005 3011
2995 2991 2992 2989 2985 2984 2983 2980 2978 2975 2971 2969 2970 2965 2963 2962 2962 2960 2959 2961 2958 2960 2962 2965 2961 2967 2968 2971 2969 2971 2975 2978 2982 2986 2984 2988 2983 2976 2978 2983 2986 2992 2996 3001 3006
2993 2988 2986 2983 2981 2980 2978 2974 2973 2973 2970 2967 2965 2964 2962 2960 2958 2953 2952 2953 2952 2953 2955 2956 2953 2953 2956 2961 2963 2965 2968 2973 2978 2982 2981 2978 2979 2974 2977 2984 2987 2989 2992 2996 3000
2987 2983 2981 2978 2977 2976 2974 2972 2969 2968 2967 2965 2961 2962 2961 2957 2951 2950 2948 2947 2946 2948 2948 2952 2946 2949 2952 2958 2961 2961 2964 2968 2972 2968 2977 2967 2975 2976 2979 2979 2985 2989 2990 2991 2994
2983 2980 2975 2972 2970 2970 2970 2967 2966 2965 2964 2960 2959 2958 2957 2955 2954 2945 2945 2945 2940 2941 2943 2946 2942 2941 2942 2950 2956 2954 2954 2957 2957 2960 2964 2969 2972 2975 2977 2978 2979 2982 2984 2987 2990
2977 2974 2971 2967 2965 2963 2963 2962 2960 2961 2957 2956 2954 2951 2949 2947 2944 2941 2938 2937 2934 2936 2940 2939 2941 2937 2935 2942 2949 2941 2944 2949 2949 2953 2957 2961 2954 2972 2973 2975 2976 2976 2977 2980 2985
Wind_Speed
22 23 23 22 21 21 21 21 21 20 22 23 22 22 21 22 23 22 19 18 17 19 19 21 22 22 26 24 26 30 32 34 38 40 23 26 32 27 30 30 30 29 27 20 21
24 25 24 24 23 22 22 22 22 22 22 23 23 23 23 24 23 24 17 19 16 16 18 20 19 22 24 23 25 31 36 37 35 36 31 17 30 27 32 30 30 29 24 23 24
28 26 25 25 23 23 22 22 22 22 23 24 24 24 24 24 23 17 21 19 15 14 16 19 19 19 21 20 24 30 36 36 33 31 47 13 22 25 29 30 29 27 23 23 20
27 26 25 24 25 25 24 25 25 25 25 25 26 27 27 26 18 22 20 17 16 16 16 18 20 21 21 24 22 26 29 29 20 25 32 36 15 21 27 34 33 24 18 20 20
27 27 26 26 27 27 28 28 29 30 30 28 28 29 29 30 17 24 19 18 16 17 16 18 20 21 25 24 21 24 21 21 25 26 24 39 18 11 24 28 31 27 23 25 23
28 28 29 30 30 30 30 31 32 32 32 32 32 34 34 34 21 22 20 19 19 17 17 21 19 19 24 26 25 24 24 19 19 27 28 32 48 19 15 22 24 25 23 25 23
32 33 34 35 36 36 35 34 35 36 36 35 35 39 40 27 27 28 24 21 21 18 16 18 21 23 26 24 27 28 23 21 22 26 30 29 36 58 12 13 26 23 17 22 23
35 36 37 37 37 38 38 37 37 39 38 38 39 41 48 33 34 33 32 27 21 19 17 19 22 26 28 28 19 28 28 28 28 24 34 35 44 49 40 17 23 27 23 22 22
35 36 37 37 38 40 39 39 39 40 39 40 41 41 49 38 26 16 21 20 20 20 19 18 24 29 32 29 25 22 27 35 30 30 31 44 38 28 51 37 21 25 24 24 28
37 38 38 37 37 40 40 39 41 41 41 42 42 40 37 30 28 24 17 19 24 23 23 26 26 29 37 28 24 23 30 22 31 31 33 40 43 37 45 52 38 17 22 26 29
37 38 37 36 37 39 39 40 41 41 46 44 40 43 27 29 28 18 17 22 28 29 29 30 31 40 41 40 29 19 26 15 26 31 24 39 40 45 32 47 60 53 28 30 28
39 39 40 36 36 37 38 38 38 37 48 45 45 47 42 39 43 37 26 30 34 37 32 33 42 35 31 30 34 35 24 30 24 22 25 30 33 42 42 43 49 51 34 29 31
39 41 42 41 35 34 36 35 33 30 37 55 49 44 40 37 47 48 39 37 36 39 38 41 40 32 35 35 30 36 38 37 31 24 21 24 32 38 45 43 47 61 45 36 30
39 41 43 44 33 30 32 33 26 18 24 47 33 15 19 29 41 44 45 36 41 42 38 39 38 30 22 33 35 37 36 36 31 20 12 25 10 31 39 43 48 52 51 45 31
39 36 39 37 39 30 27 25 16 13 5 11 10 16 19 14 11 8 31 40 42 42 31 38 32 34 36 36 23 35 29 32 38 24 15 17 13 33 21 46 56 57 52 51 40
39 31 33 32 29 30 27 19 14 7 10 6 9 13 17 17 15 14 13 35 36 39 35 36 33 30 30 32 34 28 21 25 34 27 8 35 31 22 35 48 57 58 65 64 53
40 31 27 30 27 24 23 14 9 12 5 5 11 6 14 16 15 18 19 36 36 29 40 35 38 35 25 26 27 33 23 6 7 6 10 28 22 38 36 44 42 50 56 61 52
39 29 20 22 24 22 20 14 14 9 17 12 15 16 19 14 17 21 18 28 37 30 10 27 21 36 37 33 31 39 30 8 6 6 4 12 16 54 49 26 38 39 52 57 54
29 29 17 19 19 12 9 18 10 4 18 22 24 19 15 13 17 12 30 38 33 38 24 12 19 17 28 37 35 28 30 29 4 7 1 12 23 21 31 38 32 33 43 52 53
32 31 19 17 20 21 20 26 15 16 25 25 15 11 12 9 6 10 15 11 37 36 40 29 16 19 21 37 30 33 36 19 12 5 5 7 9 29 18 38 33 36 40 44 52
32 33 17 22 20 19 25 24 18 11 14 21 20 17 15 17 17 10 7 12 13 16 34 47 23 7 27 38 38 29 29 18 14 7 3 2 8 21 34 18 36 32 37 36 39
32 31 25 20 21 18 15 14 26 24 21 13 9 8 16 19 23 22 23 15 6 7 19 34 22 35 28 34 39 42 35 37 10 8 15 2 7 5 11 34 30 36 33 36 36
30 32 19 23 19 15 15 25 20 23 27 17 10 12 15 13 12 14 14 12 21 18 4 7 25 11 10 20 24 41 37 34 37 18 20 11 17 13 8 15 23 36 38 36 36
26 23 31 24 8 11 24 24 22 20 19 16 23 21 23 22 12 13 20 18 25 24 15 9 20 33 25 17 29 37 42 38 36 24 27 37 32 35 33 23 9 23 27 30 31
27 27 28 22 24 16 18 21 24 22 8 17 21 18 19 27 33 19 12 19 29 30 32 15 17 26 43 39 24 31 38 42 38 47 29 45 35 35 32 33 29 28 18 24 30
23 24 19 30 24 20 19 24 22 22 23 24 18 17 21 25 25 35 30 24 26 21 23 19 11 15 38 41 42 32 26 32 44 47 56 47 38 22 29 28 32 29 28 21 24
21 23 23 25 28 20 24 25 24 24 25 23 24 24 27 27 26 29 31 32 34 31 26 31 18 7 16 33 29 42 46 36 30 33 50 40 55 42 24 24 22 19 23 21 23
Wind_Direction
307 307 306 307 307 307 309 310 314 316 313 313 316 316 319 323 324 327 331 327 315 312 301 273 257 255 254 243 244 234 227 232 224 214 205 213 219 223 212 220 233 238 234 229 228
303 303 303 302 302 303 304 307 308 311 309 307 309 313 315 315 316 321 323 323 316 304 292 276 257 250 252 244 230 230 229 237 238 225 216 181 191 199 205 208 223 224 225 231 226
298 296 296 298 299 297 299 299 300 300 301 302 305 304 304 304 311 314 319 320 309 292 282 274 250 248 250 243 229 231 234 239 237 232 228 180 172 174 190 201 214 228 229 227 224
302 302 301 300 297 293 293 293 293 294 295 296 298 298 299 298 301 303 309 307 297 276 273 266 248 238 234 239 237 238 239 232 233 232 233 212 166 170 175 190 202 209 226 229 222
302 302 300 296 295 294 293 292 291 291 290 289 289 289 288 288 307 292 295 294 290 274 264 255 242 239 233 239 233 243 236 233 232 229 235 221 206 202 180 183 197 206 214 221 221
300 298 296 294 293 291 289 289 288 286 285 286 288 285 284 284 290 285 283 283 287 276 252 247 246 249 240 233 226 241 226 231 232 219 220 224 215 265 186 189 188 204 218 223 222
299 298 297 294 293 291 288 285 285 285 283 282 281 280 277 287 283 278 275 269 274 269 252 242 229 228 230 231 233 235 229 227 227 219 222 214 220 221 203 196 191 189 208 217 221
301 298 296 294 292 290 288 286 285 283 281 278 275 275 276 280 275 276 273 267 257 249 248 234 226 227 223 224 212 227 230 236 222 223 214 212 224 218 210 229 200 204 204 222 225
301 299 298 297 295 291 289 287 283 281 280 275 273 271 276 280 282 251 252 249 241 236 227 227 227 226 224 220 213 215 226 222 219 220 218 219 226 227 210 226 214 205 210 228 232
306 304 301 299 297 293 292 289 286 283 279 275 271 271 275 282 262 257 254 231 231 232 216 224 226 224 225 213 213 210 225 233 229 219 218 222 229 238 209 213 215 230 228 226 231
306 303 301 301 298 296 294 291 288 284 276 273 266 267 257 268 261 257 255 236 222 225 225 227 225 227 224 222 214 222 231 246 234 237 233 233 227 230 224 221 217 233 234 228 230
311 307 303 301 297 296 294 292 289 284 282 274 273 270 269 267 262 257 235 227 221 226 226 229 232 240 242 243 231 225 229 236 234 239 247 249 241 234 229 210 225 209 223 232 227
311 307 304 302 302 300 293 291 291 287 287 286 285 277 278 257 257 252 241 240 239 232 229 235 245 243 242 239 230 233 230 231 233 238 251 248 251 242 233 231 223 216 212 235 227
309 307 303 302 303 298 290 292 289 293 294 286 290 293 258 253 250 245 237 241 228 232 235 243 241 248 241 233 235 233 230 238 234 233 231 225 258 247 230 220 211 204 205 208 225
306 304 299 302 304 297 290 289 274 281 305 285 264 267 260 258 258 285 233 225 231 232 224 231 240 236 233 239 245 235 241 234 229 235 231 222 236 246 230 218 211 206 211 204 215
305 306 299 295 297 292 287 279 257 232 243 253 250 261 270 278 258 241 208 219 231 234 245 252 259 257 256 255 246 233 215 210 222 235 235 233 210 253 225 221 219 216 217 213 212
305 309 306 301 297 283 280 266 217 220 241 264 244 268 286 275 254 222 215 210 208 220 237 244 247 244 250 244 235 212 207 174 179 194 236 240 206 235 238 233 230 223 216 218 220
307 311 312 299 291 283 269 227 228 253 240 235 246 272 288 277 276 243 220 219 221 217 246 225 244 238 221 231 216 208 206 164 166 190 228 191 222 234 235 228 225 230 229 226 227
314 314 318 295 285 283 266 218 233 249 253 270 267 288 282 258 241 253 238 238 236 225 219 225 232 237 234 218 222 204 200 211 226 208 241 203 232 239 242 229 222 222 219 219 219
306 312 329 307 288 248 248 242 249 250 259 272 285 279 275 255 250 238 237 256 241 240 230 231 273 263 243 216 229 221 213 198 208 161 226 253 227 221 239 227 221 216 217 217 221
306 313 328 313 299 297 273 264 305 285 303 279 274 265 257 286 289 277 261 255 256 257 235 229 235 239 215 205 208 203 208 207 198 176 208 296 247 239 231 233 215 220 223 212 221
311 314 325 315 319 301 297 294 299 321 333 334 307 286 280 279 280 279 271 252 128 219 251 235 235 243 250 225 223 223 213 205 186 190 217 217 283 137 228 222 215 213 204 218 219
314 314 315 320 312 300 304 313 320 334 333 334 292 325 337 318 302 283 277 250 248 262 141 256 219 228 236 223 209 218 219 225 222 229 219 219 253 227 323 223 216 214 224 228 226
308 306 311 315 309 304 309 311 322 337 328 327 322 310 302 323 309 296 278 256 265 263 219 274 233 219 224 223 213 208 216 219 217 221 232 232 241 250 265 270 226 219 225 230 233
305 304 305 300 301 301 301 304 318 327 317 313 311 322 324 320 312 310 263 257 260 270 268 269 255 239 226 234 250 232 229 225 224 231 225 243 240 245 256 266 261 273 243 222 223
301 304 292 301 299 295 300 299 311 315 309 308 302 304 304 303 310 299 305 294 293 268 265 243 279 245 229 229 235 243 238 234 233 235 235 236 237 255 244 252 258 251 246 236 217
303 301 303 298 303 302 298 303 301 307 300 305 298 299 303 313 301 290 281 279 278 284 280 277 273 239 231 226 237 239 232 238 249 242 230 229 240 227 224 230 243 264 254 243 219